Regional Weather Roundup
Issued by NWS

Home | Current Version | Previous Version | Text Only | Print | Product List | Glossary Off
Versions: 1 2 3 4 5 6 7 8 9 10 11 12 13 14 15 16 17 18 19 20 21 22 23 24 25 26 27 28 29 30 31 32 33 34 35 36 37 38 39 40 41 42 43 44 45 46 47 48 49 50

000
ASUS43 KLSX 180659
RWRMO

WEATHER SUMMARY FOR MISSOURI
NATIONAL WEATHER SERVICE SPRINGFIELD MO
200 AM CDT THU SEP 18 2014

NOTE: "FAIR" INDICATES FEW OR NO CLOUDS BELOW 12,000 FEET WITH NO
       SIGNIFICANT WEATHER AND/OR OBSTRUCTIONS TO VISIBILITY.
       CURRENT SKY AND/OR WEATHER CONDITIONS ARE NOT AVAILABLE FOR
       CHILLICOTHE AND FARMINGTON.

MOZ001>031-035>038-043-044-053-054-180800-
...NORTHERN AND WESTERN MISSOURI...

CITY           SKY/WX    TMP DP  RH WIND       PRES   REMARKS
KANSAS CTY INT FOG       63  63 100 E13       29.97R VSB 1/2
KANSAS C DTWN  CLOUDY    65  63  93 SE7       29.96R
LEE`S SUMMIT   CLOUDY    64  62  93 E8        29.97R
ST JOSEPH      CLOUDY    64  63  96 E7        29.96F FOG
KIRKSVILLE     PTCLDY    55  55 100 E5        30.02S FOG

$$
MOZ066>068-077>081-088>096-101>105-180800-
...SOUTHWEST MISSOURI...

CITY           SKY/WX    TMP DP  RH WIND       PRES   REMARKS
SPRINGFIELD    CLOUDY    65  62  90 SE6       29.94S
JOPLIN         CLOUDY    68  64  87 N6G20     29.94R THUNDER

$$
MOZ032>034-039>042-045>050-055>058-069>072-180800-
...CENTRAL MISSOURI...

CITY           SKY/WX    TMP DP  RH WIND       PRES   REMARKS
COLUMBIA       NOT AVBL
JEFFERSON CITY CLOUDY    62  61  96 NE6       29.97F FOG
ROLLA          FOG       60  60 100 E6        29.96F VSB 1/4
SEDALIA        FOG       63  61  93 E5        29.97F VSB 1/4
OSAGE BEACH    CLOUDY    64  61  88 NE7       29.96F

$$
MOZ051-052-059>065-180800-
...EAST CENTRAL MISSOURI...

CITY           SKY/WX    TMP DP  RH WIND       PRES   REMARKS
ST LOUIS INTL  CLOUDY    62  56  80 E6        30.01R
SPIRIT OF STL  CLOUDY    60  57  89 E5        29.99S
ST CHARLES     CLOUDY    61  57  87 NE6       30.00S

$$
MOZ072>076-082>087-097>100-106>115-180800-
...SOUTH CENTRAL AND SOUTHEAST MISSOURI...

CITY           SKY/WX    TMP DP  RH WIND       PRES   REMARKS
CAPE GIRARDEAU CLOUDY    60  58  92 CALM      29.97S FOG
FARMINGTON     CLOUDY    59  57  94 CALM      30.00S
POPLAR BLUFF   CLOUDY    62  58  86 CALM      29.95F FOG
WEST PLAINS    FOG       60  59  96 E6        29.97F VSB 1/2

$$


USA.gov is the U.S. government's official web portal to all federal, state and local government web resources and services.